WA3YML Weather Reports


Display with metric or nautical units.
time (UTC)temp
F
wind
direction
speed
MPH
gust
MPH
rain 1hr
in
rain 24hr
in
rain mn
in
humidity
%
barometer
mb
20211023004503 46 348 0.0 0.0 0.00 0.07 0.02 95 1014.4
20211023003003 46 348 0.0 1.0 0.00 0.07 0.02 95 1014.3
20211023001504 46 348 0.0 1.0 0.00 0.07 0.02 95 1014.2
20211023000004 47 348 0.0 1.0 0.00 0.07 0.02 95 1014.2
20211022234503 48 348 0.0 0.0 0.00 0.07 0.02 96 1014.1
20211022233003 49 348 0.0 0.0 0.00 0.07 0.02 96 1013.9
20211022231503 49 348 0.0 0.0 0.00 0.07 0.02 96 1014.0
20211022230003 49 348 0.0 1.0 0.00 0.07 0.02 96 1013.8
20211022224503 49 348 0.0 0.0 0.00 0.07 0.02 96 1013.7
20211022223003 49 348 0.0 0.0 0.00 0.07 0.02 96 1013.8
20211022221503 50 348 0.0 0.0 0.00 0.07 0.02 96 1013.8
20211022220004 50 15 0.0 0.0 0.00 0.07 0.02 96 1013.8
20211022214502 50 348 0.0 1.0 0.00 0.07 0.02 96 1013.7
20211022213004 50 348 0.0 1.0 0.00 0.07 0.02 95 1013.8
20211022211503 50 348 0.0 1.0 0.00 0.07 0.02 95 1013.9
20211022210003 50 348 0.0 3.0 0.00 0.07 0.02 94 1013.9
20211022204503 50 32 1.0 5.0 0.00 0.07 0.02 94 1013.7
20211022203003 51 22 1.0 3.0 0.00 0.07 0.02 94 1013.4
20211022201504 52 53 0.0 6.0 0.00 0.07 0.02 93 1013.5
20211022200003 52 261 1.0 6.0 0.00 0.07 0.02 92 1013.4
20211022194503 53 298 2.0 6.0 0.00 0.07 0.02 92 1013.3
20211022193004 53 16 1.0 6.0 0.00 0.07 0.02 90 1012.9
20211022191504 54 3 1.0 6.0 0.00 0.07 0.02 89 1012.9
20211022190003 55 306 1.0 3.0 0.00 0.07 0.02 86 1012.8
20211022184504 56 252 1.0 5.0 0.00 0.07 0.02 86 1012.8
20211022183004 56 268 1.0 3.0 0.00 0.07 0.02 85 1012.9
20211022181503 56 266 0.0 3.0 0.00 0.07 0.02 85 1012.6
20211022180003 56 293 1.0 6.0 0.00 0.07 0.02 84 1012.7
20211022174503 56 285 1.0 3.0 0.00 0.07 0.02 84 1012.7
20211022173004 56 344 1.0 7.0 0.00 0.07 0.02 83 1012.8
20211022171504 57 347 1.0 5.0 0.00 0.07 0.02 82 1012.8
20211022170003 57 347 1.0 5.0 0.00 0.07 0.02 82 1012.7
20211022164503 58 278 1.0 6.0 0.00 0.07 0.02 80 1012.9
20211022163005 59 342 2.0 10.0 0.00 0.07 0.02 80 1013.0
20211022161503 60 239 2.0 5.0 0.00 0.07 0.02 78 1012.9
20211022160005 59 220 1.0 7.0 0.00 0.07 0.02 81 1012.9
20211022154503 57 265 2.0 6.0 0.00 0.07 0.02 83 1012.9
20211022153004 55 268 1.0 9.0 0.00 0.07 0.02 85 1012.9
20211022151503 55 215 1.0 5.0 0.00 0.07 0.02 86 1012.9
20211022150005 55 289 1.0 9.0 0.00 0.07 0.02 85 1012.8
20211022144503 56 233 2.0 9.0 0.00 0.07 0.02 85 1012.5
20211022143004 56 236 3.0 9.0 0.00 0.07 0.02 84 1012.3
20211022141503 55 231 3.0 12.0 0.00 0.07 0.02 85 1012.2
20211022140004 55 216 3.0 14.0 0.00 0.07 0.02 87 1012.1
20211022134504 54 262 3.0 10.0 0.00 0.07 0.02 90 1012.2
20211022133004 52 257 2.0 6.0 0.00 0.07 0.02 92 1012.3
20211022131504 52 268 2.0 7.0 0.00 0.07 0.02 92 1012.4
20211022130003 51 285 1.0 9.0 0.00 0.07 0.02 93 1012.1
20211022124503 51 284 2.0 6.0 0.00 0.07 0.02 95 1011.8
20211022123004 50 229 2.0 7.0 0.00 0.07 0.02 96 1011.5
20211022121503 50 188 1.0 3.0 0.00 0.07 0.02 96 1011.3
20211022120003 49 251 1.0 7.0 0.00 0.07 0.02 96 1011.0
20211022114504 49 248 2.0 10.0 0.00 0.07 0.02 96 1010.6
20211022113004 49 243 2.0 9.0 0.01 0.07 0.02 96 1010.5
20211022111504 49 263 2.0 9.0 0.01 0.07 0.02 96 1010.4
20211022110004 49 247 2.0 10.0 0.01 0.07 0.02 96 1010.2
20211022104504 49 257 2.0 7.0 0.01 0.07 0.02 96 1010.1
20211022103004 49 251 2.0 7.0 0.00 0.06 0.01 96 1010.0
20211022101503 49 224 1.0 8.0 0.00 0.06 0.01 96 1009.9
20211022100003 50 196 1.0 6.0 0.00 0.06 0.01 96 1009.7
20211022094503 50 217 2.0 7.0 0.00 0.06 0.01 96 1009.6
20211022093004 51 267 1.0 3.0 0.00 0.06 0.01 95 1009.6
20211022091504 52 217 2.0 12.0 0.00 0.06 0.01 95 1009.4
20211022090004 52 298 2.0 6.0 0.00 0.06 0.01 95 1009.3
20211022084504 53 211 1.0 6.0 0.00 0.06 0.01 95 1009.2
20211022083005 53 231 1.0 6.0 0.00 0.06 0.01 95 1009.2
20211022081504 53 231 2.0 10.0 0.00 0.06 0.01 96 1009.0
20211022080004 54 249 2.0 13.0 0.00 0.06 0.01 96 1008.7
20211022074503 54 240 3.0 12.0 0.00 0.06 0.01 97 1008.7
20211022073005 54 246 2.0 5.0 0.00 0.06 0.01 98 1008.3
20211022071504 54 229 1.0 9.0 0.00 0.06 0.01 97 1008.4
20211022070004 54 199 0.0 3.0 0.00 0.06 0.01 97 1008.5
20211022064504 54 210 2.0 5.0 0.00 0.06 0.01 97 1008.5
20211022063004 54 238 1.0 3.0 0.00 0.06 0.01 97 1008.6
20211022061504 54 209 1.0 3.0 0.01 0.06 0.01 97 1008.5
20211022060005 55 180 1.0 3.0 0.01 0.06 0.01 97 1008.4
20211022054504 55 227 1.0 7.0 0.01 0.06 0.01 97 1008.4
20211022053005 55 228 2.0 13.0 0.01 0.06 0.01 97 1008.8
20211022051504 54 229 3.0 6.0 0.00 0.05 0.00 97 1008.7
20211022050004 54 183 0.0 2.0 0.00 0.05 0.00 96 1008.0
20211022044504 54 182 2.0 6.0 0.00 0.05 0.00 96 1008.1
20211022043003 54 181 0.0 1.0 0.01 0.05 0.00 95 1008.2
20211022041503 55 181 0.0 2.0 0.01 0.05 0.00 95 1008.4
20211022040002 55 181 0.0 2.0 0.04 0.05 0.00 94 1008.8
20211022034503 55 181 0.0 3.0 0.05 0.05 0.05 93 1008.8
20211022033004 56 181 0.0 3.0 0.04 0.04 0.04 92 1009.1
20211022031502 57 173 1.0 7.0 0.04 0.04 0.04 89 1009.3
20211022030003 59 184 2.0 5.0 0.02 0.02 0.02 85 1009.8
20211022024503 59 170 0.0 3.0 0.00 0.00 0.00 77 1009.8
20211022023003 59 160 1.0 8.0 0.00 0.00 0.00 77 1009.8
20211022021503 59 174 2.0 5.0 0.00 0.00 0.00 78 1010.1
20211022020003 59 166 1.0 6.0 0.00 0.00 0.00 78 1010.4
20211022014503 59 168 3.0 9.0 0.00 0.00 0.00 79 1010.6
20211022013004 59 169 2.0 14.0 0.00 0.00 0.00 79 1010.7
20211022011502 59 11 3.0 10.0 0.00 0.00 0.00 80 1010.6
20211022010003 58 123 3.0 12.0 0.00 0.00 0.00 81 1010.6